Home   Weather   Yellowknife   Past weeks
Flag for Canada

Past Weather in Yellowknife, Northwest Territories, Canada — Yesterday and Last 2 Weeks

Now
34 °F

Low clouds.


Feels Like: 27 °F
Forecast: 35 / 28 °F
Wind: 8 mph from East

Location: Yellowknife

Current Time: Oct 17, 2019 at 5:07:55 pm

Latest Report: Oct 17, 2019 at 4:09 pm


Visibility: 15 mi

Pressure: 29.46 "Hg

Humidity: 87%

Dew Point: 30 °F

Location of YellowknifeLocation

Past Weather in Yellowknife — Graph

°F

Yellowknife Temperature Yesterday

Maximum temperature yesterday: 34 °F (at 12:00 am)
Minimum temperature yesterday: 32 °F (at 12:18 am)
Average temperature yesterday: 33 °F

High & Low Weather Summary for the Past Weeks

 TemperatureHumidityPressure
High57 °F (Oct 3, 2:00 pm)100% (Oct 4, 5:00 pm)30.29 "Hg (Oct 4, 5:00 pm)
Low23 °F (Oct 9, 6:00 am)48% (Oct 3, 2:00 pm)29.41 "Hg (Oct 6, 8:00 pm)
Average36 °F82%29.83 "Hg
* Reported Oct 2 4:00 pm — Oct 17 4:09 pm, Yellowknife. Weather by CustomWeather, © 2019

Note: Actual official high and low records may vary slightly from our data, if they occured in-between our weather recording intervals... More about our weather records

Advertising

Yellowknife Weather History for the Previous 24 Hours

Scroll right to see more
 ConditionsComfort  
Time TempWeatherWind HumidityBarometerVisibility
4:09 pm
Thu, Oct 17
34 °FLow clouds.8 mph87%29.46 "Hg15 mi
3:38 pm34 °FSnow flurries. More clouds than sun.8 mph93%29.47 "Hg10 mi
3:23 pm34 °FLow clouds.8 mph93%29.47 "Hg10 mi
2:42 pm34 °FSnow flurries. Overcast.8 mph93%29.47 "Hg15 mi
2:07 pm34 °FOvercast.8 mph87%29.47 "Hg15 mi
1:00 pm32 °FPartly sunny.9 mph93%29.48 "Hg10 mi
12:32 pm32 °FPartly sunny.8 mph93%29.48 "Hg10 mi
12:00 pm32 °FOvercast.7 mph93%29.49 "Hg10 mi
11:00 am32 °FIce fog.2 mph93%29.51 "Hg3 mi
10:00 am32 °FIce fog.5 mph93%29.50 "Hg6 mi
8:29 am30 °FIce fog.3 mph100%29.49 "Hg1 mi
8:00 am30 °FLight snow. Ice fog.3 mph100%29.50 "Hg1 mi
7:54 am30 °FLight snow. Ice fog.2 mph100%29.50 "Hg1 mi
7:00 am30 °FLight snow. Overcast.No wind100%29.51 "Hg15 mi
6:23 am30 °FLight snow. Overcast.2 mph100%29.52 "Hg15 mi
6:11 am30 °FOvercast.2 mph100%29.52 "Hg15 mi
5:21 am30 °FLight freezing rain. Ice fog.3 mph93%29.52 "Hg1 mi
5:05 am28 °FIce fog.2 mph100%29.52 "Hg1 mi
4:00 am28 °FPassing clouds.3 mph100%29.52 "Hg15 mi
3:00 am28 °FPassing clouds.3 mph100%29.53 "Hg15 mi
2:52 am27 °FPassing clouds.3 mph100%29.53 "Hg15 mi
2:31 am28 °FLight freezing rain. Ice fog.3 mph100%29.53 "Hg3 mi
2:00 am28 °FLight freezing rain. Ice fog.3 mph100%29.53 "Hg1 mi
1:40 am28 °FLight freezing rain. Ice fog.3 mph100%29.53 "Hg1 mi
1:00 am30 °FLight snow. Ice fog.2 mph100%29.53 "Hg1 mi
12:00 am32 °FLight snow. Ice fog.3 mph100%29.53 "Hg1 mi
11:47 pm
Wed, Oct 16
32 °FLight snow. Ice fog.3 mph100%29.54 "Hg1 mi
11:00 pm32 °FLight snow. Ice fog.2 mph100%29.54 "Hg1 mi
10:32 pm32 °FLight snow. Ice fog.3 mph100%29.53 "Hg1 mi
10:08 pm32 °FLight snow. Ice fog.3 mph100%29.53 "Hg1 mi
10:01 pm32 °FLight snow. Ice fog.3 mph100%29.54 "Hg1 mi
9:00 pm34 °FLight snow. Mostly cloudy.3 mph93%29.54 "Hg15 mi
8:00 pm34 °FLight snow. Mostly cloudy.3 mph93%29.54 "Hg15 mi
7:00 pm34 °FLight snow. Low clouds.7 mph93%29.54 "Hg12 mi
6:54 pm34 °FLight snow. Low clouds.6 mph93%29.54 "Hg12 mi
6:00 pm34 °FLight rain. Mostly cloudy.6 mph93%29.55 "Hg12 mi
5:00 pm34 °FLight rain. Low clouds.7 mph93%29.56 "Hg12 mi
Weather by CustomWeather, © 2019

See weather overview